Location: Kailua
(21.4020°N, 157.7390°W)
Time: 12:32:49
(UTC-10:00)

Daily predictions for brighter satellites

Satellite Brightness Start Highest point End
(mag) Time Altitude Azimuth Time Altitude Azimuth Time Altitude Azimuth
Longmarch 3A Rocket 2.6 19:05:35 10° W 19:07:31 31° SSW 19:11:51 10° SE
Cosmos 1934 Rocket 3.9 19:01:41 10° S 19:07:51 77° E 19:13:56 10° N
COSMOS 2406 3.2 19:04:22 10° NNW 19:10:06 87° ENE 19:15:46 10° SSE
Meteor 1-4 Rocket 3.4 19:08:36 10° SSE 19:11:36 27° E 19:14:33 10° NE
FREGAT/IRIS 3.2 19:10:58 10° SE 19:13:49 36° ENE 19:16:39 10° N
BREEZE-M DEB (TANK) 3.2 19:14:34 10° WSW 19:16:37 33° NNW 19:20:13 10° NE
Cosmos 1805 3.5 19:14:44 10° SSE 19:18:27 46° E 19:22:11 10° NNE
Meteor 2-5 Rocket 4.1 19:14:07 10° N 19:19:54 76° W 19:25:47 10° S
Cosmos-2242 4.4 19:17:56 10° SE 19:20:43 17° E 19:23:30 10° NE
Cosmos 1378 3.0 19:17:14 10° N 19:20:58 80° E 19:24:40 10° S
Cosmos 1544 3.1 19:19:03 10° S 19:22:34 52° E 19:26:07 10° NNE
Cosmos 372 Rocket 4.0 19:19:53 10° S 19:24:49 54° ESE 19:29:48 10° NNE
Resurs 01 Rocket 2.7 19:22:19 10° SE 19:25:51 24° ENE 19:29:25 10° NNE
RESURS DK-1 2.7 19:25:55 10° N 19:29:52 44° ENE 19:33:48 10° SE
Delta 168 3.3 19:31:13 10° W 19:35:34 47° N 19:37:55 18° ENE
Cosmos 1470 3.8 19:32:31 10° SE 19:35:45 24° E 19:38:59 10° NE
Delta 7925 Rocket 3.9 19:32:16 10° SW 19:38:06 49° SSE 19:41:15 21° E
Cosmos 1733 4.3 19:35:18 10° SE 19:38:25 24° E 19:41:33 10° NE
In-Cosmos 22 4.2 19:33:36 10° N 19:38:43 51° E 19:43:50 10° SSE
Cosmos 2098 Rocket 4.3 19:33:04 10° S 19:39:44 65° E 19:47:12 10° NNE
FENGYUN 3A 3.6 19:37:06 10° SSE 19:42:28 68° ENE 19:47:49 10° N
Delta 2 Rocket 4.1 19:35:15 10° WNW 19:42:41 83° NNE 19:47:01 22° ESE
Mugunghwa Rocket 3.9 19:36:32 10° WSW 19:42:48 67° SSE 19:47:14 20° E
SJ-6B 2.8 19:40:27 10° S 19:44:11 75° W 19:47:53 10° NNW
Spot 2 Rocket 3.8 19:41:32 10° SE 19:46:19 43° ENE 19:51:08 10° N
GPS 2-12 Rocket1 4.1 19:45:42 10° SW 19:49:52 30° SSE 19:51:22 25° SE
H-2A R/B 2.8 19:48:27 15° SSE 19:51:31 55° ENE 19:55:20 10° N
Aurora 2 Rocket 3.7 19:43:33 10° W 19:51:36 69° N 19:55:16 23° ENE
Cosmos 1833 Rocket 3.9 19:51:26 10° NNE 19:55:26 21° ENE 19:55:26 21° ENE
Cosmos 2100 Rocket 4.1 19:51:01 10° SSE 19:57:03 51° E 20:03:09 10° NNE
ATLAS 5 CENTAUR R/B 3.2 19:55:25 10° SW 19:59:38 38° WNW 20:04:04 10° N
USA 215 3.2 19:54:31 10° NE 20:01:04 87° SE 20:07:36 10° SW
SWIFT 3.6 19:57:27 10° W 20:01:16 31° SSW 20:02:42 25° SSE
Resurs 1-3 3.5 20:00:44 25° SSE 20:03:09 62° ENE 20:07:28 10° N
HJ-1C 4.2 20:01:12 10° S 20:04:28 51° W 20:07:47 10° NNW
Stardust Del rocket 3.5 20:12:44 10° W 20:15:36 45° WSW 20:15:36 45° WSW
Cosmos 1271 Rocket 3.0 20:13:24 10° SSW 20:17:22 72° W 20:21:22 10° N
Cosmos 1408 Rocket 4.0 20:13:15 10° N 20:16:42 45° NE 20:16:42 45° NE
Cosmos 1953 4.3 20:14:54 10° SW 20:18:29 30° W 20:22:04 10° NNW
SeaSat 1 2.3 20:17:28 37° SSE 20:19:27 89° ENE 20:24:24 10° NNW
Cosmos 1802 Rocket 3.8 20:13:49 10° S 20:19:51 63° E 20:25:53 10° NNE
ALOS 3.8 20:16:29 10° SSW 20:20:44 36° W 20:25:01 10° NNW
Yuri Rocket 3.1 20:19:58 10° WNW 20:23:59 57° N 20:23:59 57° N
Tiangong 1 3.4 20:22:10 10° NW 20:23:10 19° NNW 20:23:10 19° NNW
CZ-3 Stage 3 4.1 19:41:21 10° W 20:26:27 55° NNW 20:30:59 28° NE
Cosmos 1048 Rocket 4.0 20:23:26 10° N 20:27:59 59° NE 20:27:59 59° NE
Helios 1B rocket 3.6 20:28:42 10° N 20:32:36 42° WNW 20:36:28 10° SSW
Cosmos 2082 Rocket 2.3 20:28:41 10° N 20:33:37 55° NE 20:33:37 55° NE
Cosmos 2061 Rocket 4.0 20:29:12 10° S 20:35:33 83° W 20:41:59 10° N
ASC 2 Rocket 3.7 20:32:59 10° WSW 20:40:41 75° SSE 20:40:49 74° SSE
Helios 1A 4.5 20:43:07 30° NNW 20:43:07 30° NNW 20:45:16 10° NNW
Cosmos 1459 Rocket 4.4 20:38:55 10° SSW 20:45:06 60° W 20:51:14 10° N
Milstar 3 4.2 20:40:53 10° SSW 20:43:42 20° S 20:43:42 20° S
Timation 2 Rocket 4.3 20:46:19 10° NNW 20:50:55 49° NNE 20:50:55 49° NNE
Resurs 01 Rocket 4.2 20:59:15 10° SW 21:02:10 17° W 21:05:07 10° NW
ATLAS CENTAUR Rocket 4.4 12:22:28 10° SW 22:12:52 81° NW 22:12:52 81° NW
